Regional Weather Roundup
Issued by NWS Northern Indiana

Home | Current Version | Previous Version | Graphics & Text | Print | Product List | Glossary On
Versions: 1 2 3 4 5 6 7 8 9 10 11 12 13 14 15 16 17 18 19 20 21 22 23 24 25 26 27 28 29 30 31 32 33 34 35 36 37 38 39 40 41 42 43 44 45 46 47 48 49 50
000
ASUS43 KIWX 241510
RWRIWX

KIWX WEATHER ROUNDUP
NATIONAL WEATHER SERVICE NORTHERN INDIANA
1100 AM EDT TUE APR 24 2018

NOTE: "FAIR" INDICATES FEW OR NO CLOUDS BELOW 12,000 FEET WITH NO
SIGNIFICANT WEATHER AND/OR OBSTRUCTIONS TO VISIBILITY.

* THESE STATIONS ARE NOT UNDER NWS QUALITY CONTROL. THEY ALSO MAY NOT
  REPORT WEATHER SUCH AS PRECIPITATION OR FOG.

INZ001>027-241600-
NORTHERN INDIANA

CITY           SKY/WX    TMP DP  RH WIND       PRES   REMARKS
GARY*          PTSUNNY   52  46  82 CALM      30.06F
VALPARAISO     CLOUDY    58  51  78 E9        30.04F
MICHIGAN CITY* CLOUDY    55  50  82 E3        30.05F
LAPORTE*       CLOUDY    54  50  86 E7        30.04F
KNOX*          CLOUDY    55  50  82 NE7       30.03F
SOUTH BEND     CLOUDY    55  49  80 E3        30.06F
ELKHART*       PTSUNNY   57  48  72 E7        30.04F
GOSHEN         CLOUDY    57  49  74 E9        30.04S
MONTICELLO*    CLOUDY    55  49  80 E6        30.01S
LOGANSPORT*    CLOUDY    54  50  87 E7        30.03R
ROCHESTER*     CLOUDY    57  50  77 E10       30.03S
WARSAW*        CLOUDY    55  48  76 SE7       30.03F
AUBURN*        CLOUDY    55  50  82 E13       30.05S
FORT WAYNE     CLOUDY    57  51  80 E17       30.03S
HUNTINGTON*    CLOUDY    55  51  84 E8        30.01F
PERU/GRISSOM   CLOUDY    54  54 100 E7        30.00S
MARION*        CLOUDY    54  50  86 CALM      30.01S

$$
INZ028>050-241600-
CENTRAL INDIANA

CITY           SKY/WX    TMP DP  RH WIND       PRES   REMARKS
LAFAYETTE      CLOUDY    56  51  84 NE8       30.00F
KOKOMO*        CLOUDY    53  51  93 E9        30.02R FOG
MUNCIE*        CLOUDY    56  51  84 E10       29.99S
INDIANAPOLIS   DRIZZLE   53  52  96 E7        29.98S FOG

$$
MIZ043>046-050>051-056>058-064>065-071>073-077>080-241600-
SOUTHWEST LOWER MICHIGAN

CITY           SKY/WX    TMP DP  RH WIND       PRES   REMARKS
BATTLE CREEK   CLOUDY    56  48  74 E10       30.08S
BENTON HARBOR  CLOUDY    59  49  69 E8        30.05F
COLDWATER*     CLOUDY    56  49  79 E12       30.06S
HILLSDALE*     CLOUDY    52  46  82 E10G17    30.07S
HOLLAND        CLOUDY    58  49  72 SE9       30.08F
GRAND RAPIDS   CLOUDY    57  49  74 E9        30.08F
KALAMAZOO      CLOUDY    58  47  66 E8        30.07F
STURGIS*       CLOUDY    58  49  73 E9        30.04F
THREE RIVERS*  CLOUDY    58  48  71 E9        30.06F

$$
OHZ001>008-015>018-024>025-241600-
NORTHWEST OHIO

CITY           SKY/WX    TMP DP  RH WIND       PRES   REMARKS
WAUSEON*       PTSUNNY   54  54 100 E15       30.07S FOG
DEFIANCE       CLOUDY    55  49  80 E15G21    30.05F
FINDLAY        CLOUDY    57  47  69 E10       30.03F
TOLEDO EXPRESS CLOUDY    53  53 100 E12       30.07F
TOLEDO METCALF CLOUDY    54  50  86 E10       30.09S
LIMA           CLOUDY    54  50  86 E14       30.02F

$$
AND FOR LAKE MICHIGAN COASTAL AND OPEN LAKE BUOY OBSERVATIONS

STATION/POSITION TEMP    WIND        PRES    VSBY  WAVE
                 AIR SEA DIR/SP/G                  HT/PER
                 (F)     (DEG/KT/KT) (MB)    (MI)  (FT/S)
CALUMET HARBOR    48     340/  9/ 11 1017.4S
MICHIGAN CITY     47      30/  6/  7   N/A
BURNS HARBOR      44     360/  2/  3 1018.3F
SAINT JOSEPH      60      80/  3/  5 1017.6
4 MI NW BRIDGMAN  52 42  110/  2/  2 1018.1          1

$$
&&



USA.gov is the U.S. government's official web portal to all federal, state and local government web resources and services.